Weather History for KCAR - April, 2014

Change the Weather History Date:

Tuesday, April 22, 2014

  Actual Average Record
Temperature  
Mean Temperature 41 °F 42 °F  
Max Temperature 47 °F 51 °F 69 °F (2004)
Min Temperature 35 °F 33 °F 18 °F (1947)
Degree Days  
Heating Degree Days 24 23  
Month to date heating degree days 628 627  
Since 1 July heating degree days 8822 8602  
Cooling Degree Days 0 0  
Month to date cooling degree days 0 0  
Year to date cooling degree days 0 0  
Moisture  
Dew Point 36 °F    
Average Humidity 74    
Maximum Humidity 89    
Minimum Humidity 58    
Precipitation  
Precipitation 0.28 in 0.09 in 1.01 in (1958)
Month to date precipitation 2.74 1.95  
Year to date precipitation 12.40 9.38  
Snow  
Snow 0.00 in 0.10 in 4.60 in (1989)
Month to date snowfall 5.8 6.6  
Since 1 July snowfall 147.3 107.4  
Snow Depth T in    
Sea Level Pressure  
Sea Level Pressure 29.66 in    
Wind  
Wind Speed 6 mph (East)    
Max Wind Speed 10 mph    
Max Gust Speed 14 mph    
Visibility 9 miles    
Events Rain    
T = Trace of Precipitation, MM = Missing Value Source: NWS Daily Summary

Daily Weather History Graph

Daily Weather History Graph

Search for Another Location

Airport or City:

Trip Planner

Search our weather history database for the weather conditions in past years. The results will help you decide how hot, cold, wet, or windy it might be!

Date:

Astronomy

Apr. 22, 2014 Rise Set
Actual Time 5:31 AM EDT 7:30 PM EDT
Civil Twilight 4:59 AM EDT 8:02 PM EDT
Nautical Twilight 4:19 AM EDT 8:43 PM EDT
Astronomical Twilight 3:35 AM EDT 9:27 PM EDT
Moon 1:44 AM EDT (4/22) 12:01 PM EDT (4/22)
Length of Visible Light 15h 03m
Length of Day
13h 58m
Last Quarter, 46% of the Moon is Illuminated
Apr 22
Last Quarter
Apr 29
New
May 6
First Quarter
May 14
Full
May 21
Last Quarter

Hourly Weather History & Observations

Time (EDT) Temp. Windchill Dew Point Humidity Pressure Visibility Wind Dir Wind Speed Gust Speed Precip Events Conditions
12:54 AM 41.0 °F - 30.0 °F 65% 29.79 in 10.0 mi Calm Calm - N/A   Clear
1:54 AM 39.0 °F 34.8 °F 30.0 °F 70% 29.78 in 10.0 mi North 5.8 mph - N/A   Clear
3:54 AM 36.0 °F 30.3 °F 28.9 °F 76% 29.75 in 10.0 mi NNE 6.9 mph - N/A   Clear
4:54 AM 36.0 °F 30.3 °F 28.9 °F 76% 29.74 in 10.0 mi NNE 6.9 mph - N/A   Clear
6:54 AM 36.0 °F 32.1 °F 30.0 °F 79% 29.75 in 10.0 mi NNE 4.6 mph - N/A   Overcast
7:54 AM 39.0 °F - 30.9 °F 73% 29.75 in 10.0 mi Calm Calm - N/A   Overcast
8:54 AM 42.1 °F 40.2 °F 30.9 °F 65% 29.73 in 10.0 mi East 3.5 mph - N/A   Overcast
9:54 AM 44.1 °F 41.5 °F 30.9 °F 60% 29.72 in 10.0 mi ESE 4.6 mph - N/A   Overcast
10:54 AM 45.0 °F 41.8 °F 34.0 °F 65% 29.71 in 10.0 mi ESE 5.8 mph - 0.00 in Rain Light Rain
11:54 AM 45.0 °F 41.8 °F 35.1 °F 68% 29.70 in 10.0 mi ESE 5.8 mph - 0.00 in   Overcast
12:24 PM 45.0 °F 41.2 °F 37.0 °F 74% 29.66 in 9.0 mi SE 6.9 mph - 0.00 in Rain Light Rain
12:54 PM 46.0 °F 42.5 °F 37.0 °F 71% 29.68 in 10.0 mi ESE 6.9 mph - 0.00 in Rain Light Rain
1:54 PM 46.0 °F 41.9 °F 37.9 °F 73% 29.66 in 10.0 mi ESE 8.1 mph - 0.00 in Rain Light Rain
2:54 PM 46.9 °F - 41.0 °F 80% 29.64 in 10.0 mi ESE 5.8 mph - 0.01 in Rain Light Rain
3:54 PM 46.9 °F - 43.0 °F 86% 29.62 in 9.0 mi ESE 5.8 mph - 0.01 in Rain Light Rain
4:54 PM 46.9 °F - 43.0 °F 86% 29.59 in 7.0 mi ENE 6.9 mph - 0.01 in Rain Light Rain
5:54 PM 46.0 °F 43.1 °F 43.0 °F 89% 29.58 in 10.0 mi East 5.8 mph - 0.01 in Rain Light Rain
6:54 PM 46.0 °F 42.5 °F 42.1 °F 86% 29.55 in 10.0 mi ENE 6.9 mph - 0.00 in   Overcast
7:54 PM 44.1 °F 40.8 °F 41.0 °F 89% 29.57 in 10.0 mi ENE 5.8 mph - N/A   Overcast
8:54 PM 44.1 °F 42.5 °F 39.9 °F 85% 29.58 in 10.0 mi East 3.5 mph - 0.00 in   Overcast
9:54 PM 42.1 °F 37.1 °F 39.0 °F 89% 29.56 in 7.0 mi East 8.1 mph - 0.04 in Rain Light Rain
10:54 PM 42.1 °F 39.2 °F 39.9 °F 92% 29.55 in 5.0 mi ESE 4.6 mph - 0.09 in Rain Rain
11:54 PM 42.1 °F 38.4 °F 39.9 °F 92% 29.52 in 7.0 mi East 5.8 mph - 0.07 in Rain Light Rain